User: anonymous
Location: Unspecified
(0.0000°N, 0.0000°E)
Time: 14:45:45
(UTC+00:00)
Language:

SWISSCUBE - Orbit

View from above orbital plane
View from above orbital plane
View from above satellite
View from above satellite

Ground track
Ground track

The orbit data is extracted from the following two-line orbital elements,

1 35932U 09051B   14209.81116813  .00000538  00000-0  13716-3 0  3634
2 35932 098.3824 322.1896 0006941 247.7689 112.2771 14.54497338256947
Epoch (UTC): 28 July 2014 19:28:04
Eccentricity: 0.0006941
inclination: 98.3824°
perigee height: 706 km
apogee height: 716 km
right ascension of ascending node: 322.1896°
argument of perigee: 247.7689°
revolutions per day: 14.54497338
mean anomaly at epoch: 112.2771°
orbit number at epoch: 25694

The dashed part of the orbit path shows where the satellite is in the earth's shadow,  

DLR